Weather History for Altus, OK

Change the Weather History Date:

Tuesday, July 9, 2013

  Actual Average (KLTS) Record (KLTS)
Temperature  
Mean Temperature 90 °F -  
Max Temperature 103 °F 94 °F 111 °F (2011)
Min Temperature 79 °F 70 °F 69 °F (1996)
Cooling Degree Days 26    
Growing Degree Days 40 (Base 50)    
Moisture  
Dew Point 59 °F    
Average Humidity 35    
Maximum Humidity 56    
Minimum Humidity 21    
Precipitation  
Precipitation 0.00 in - - ()
Sea Level Pressure  
Sea Level Pressure 30.03 in    
Wind  
Wind Speed 13 mph (South)    
Max Wind Speed 18 mph    
Max Gust Speed 25 mph    
Visibility 10 miles    
Events      
Averages and records for this station are not official NWS values.
T = Trace of Precipitation, MM = Missing Value Source: NWS Daily Summary

Daily Weather History Graph

Daily Weather History Graph

Search for Another Location

Airport:

Trip Planner

Search our weather history database for the weather conditions in past years. The results will help you decide how hot, cold, wet, or windy it might be!

Date:

Astronomy

Jul. 09, 2013 Rise Set
Actual Time 6:32 AM CDT 8:53 PM CDT
Civil Twilight 6:02 AM CDT 9:22 PM CDT
Nautical Twilight 5:27 AM CDT 9:57 PM CDT
Astronomical Twilight 4:47 AM CDT 10:36 PM CDT
Moon 7:52 AM CDT (7/9) 9:38 PM CDT (7/9)
Length of Visible Light 15h 19m
Length of Day
14h 20m
New Moon, 2% of the Moon is Illuminated
Jul 9
New Moon
Jul 15
First Quarter
Jul 22
Full
Jul 29
Last Quarter
Aug 6
New

Hourly Weather History & Observations

Time (CDT) Temp. Heat Index Dew Point Humidity Pressure Visibility Wind Dir Wind Speed Gust Speed Precip Events Conditions
12:15 AM 87.4 °F 88.0 °F 62.2 °F 43% 30.04 in 10.0 mi SE 15.0 mph - N/A   Clear
12:35 AM 87.3 °F 88.0 °F 62.6 °F 44% 30.04 in 10.0 mi SE 15.0 mph - N/A   Clear
12:55 AM 86.9 °F 87.5 °F 62.6 °F 44% 30.04 in 10.0 mi SSE 13.8 mph - N/A   Clear
1:15 AM 86.2 °F 86.8 °F 62.8 °F 45% 30.04 in 10.0 mi SSE 12.7 mph - N/A   Clear
1:35 AM 86.0 °F 86.8 °F 63.0 °F 46% 30.04 in 10.0 mi SSE 13.8 mph - N/A   Clear
1:55 AM 86.9 °F 88.1 °F 63.7 °F 46% 30.04 in 10.0 mi South 17.3 mph 21.9 mph N/A   Clear
2:15 AM 86.4 °F 87.6 °F 63.9 °F 47% 30.04 in 10.0 mi South 16.1 mph 20.7 mph N/A   Clear
2:35 AM 86.0 °F 87.1 °F 63.7 °F 47% 30.05 in 10.0 mi South 13.8 mph 20.7 mph N/A   Clear
2:55 AM 85.3 °F 86.4 °F 63.5 °F 48% 30.05 in 10.0 mi South 15.0 mph - N/A   Clear
3:15 AM 84.4 °F 85.4 °F 63.5 °F 49% 30.05 in 10.0 mi South 15.0 mph 18.4 mph N/A   Clear
3:35 AM 84.0 °F 85.2 °F 63.5 °F 50% 30.05 in 10.0 mi South 13.8 mph - N/A   Clear
3:55 AM 83.3 °F 84.4 °F 63.5 °F 51% 30.05 in 10.0 mi South 11.5 mph - N/A   Clear
4:15 AM 82.9 °F 84.0 °F 63.1 °F 51% 30.05 in 10.0 mi South 11.5 mph - N/A   Clear
4:35 AM 82.6 °F 83.8 °F 63.1 °F 52% 30.05 in 10.0 mi South 10.4 mph - N/A   Clear
4:55 AM 82.0 °F 83.1 °F 62.8 °F 52% 30.06 in 10.0 mi South 11.5 mph - N/A   Clear
5:15 AM 81.7 °F 82.9 °F 62.8 °F 53% 30.06 in 10.0 mi South 10.4 mph - N/A   Clear
5:35 AM 81.5 °F 82.7 °F 62.6 °F 53% 30.06 in 10.0 mi South 9.2 mph - N/A   Clear
5:55 AM 81.0 °F 82.1 °F 62.6 °F 53% 30.06 in 10.0 mi South 10.4 mph - N/A   Clear
6:15 AM 80.6 °F 81.8 °F 62.6 °F 54% 30.06 in 10.0 mi South 9.2 mph - N/A   Clear
6:35 AM 80.2 °F 81.5 °F 62.6 °F 55% 30.06 in 10.0 mi South 10.4 mph - N/A   Clear
6:55 AM 79.7 °F - 62.6 °F 56% 30.06 in 10.0 mi South 9.2 mph - N/A   Clear
7:15 AM 79.7 °F - 62.6 °F 56% 30.06 in 10.0 mi South 8.1 mph - N/A   Clear
7:35 AM 79.9 °F - 62.8 °F 56% 30.06 in 10.0 mi South 9.2 mph - N/A   Clear
7:55 AM 81.0 °F 82.2 °F 62.8 °F 54% 30.07 in 10.0 mi South 11.5 mph - N/A   Clear
8:15 AM 82.4 °F 83.4 °F 62.6 °F 51% 30.08 in 10.0 mi South 13.8 mph - N/A   Clear
8:35 AM 83.5 °F 84.1 °F 62.1 °F 48% 30.08 in 10.0 mi SSW 13.8 mph - N/A   Clear
8:55 AM 85.3 °F 85.4 °F 61.0 °F 44% 30.09 in 10.0 mi SSW 13.8 mph - N/A   Clear
9:15 AM 87.3 °F 87.0 °F 59.9 °F 40% 30.09 in 10.0 mi SW 10.4 mph - N/A   Clear
9:35 AM 88.7 °F 88.0 °F 59.0 °F 37% 30.09 in 10.0 mi SW 16.1 mph - N/A   Clear
9:55 AM 90.0 °F 88.8 °F 57.7 °F 34% 30.09 in 10.0 mi WSW 13.8 mph 19.6 mph N/A   Clear
10:15 AM 91.0 °F 89.7 °F 57.6 °F 32% 30.09 in 10.0 mi WSW 12.7 mph 20.7 mph N/A   Clear
10:35 AM 92.1 °F 90.8 °F 57.4 °F 31% 30.09 in 10.0 mi SW 13.8 mph - N/A   Clear
10:55 AM 93.0 °F 91.7 °F 57.4 °F 30% 30.09 in 10.0 mi SW 17.3 mph - N/A   Clear
11:15 AM 93.9 °F 92.6 °F 57.4 °F 29% 30.08 in 10.0 mi SW 11.5 mph 18.4 mph N/A   Clear
11:35 AM 94.6 °F 93.5 °F 57.6 °F 29% 30.08 in 10.0 mi WSW 9.2 mph 18.4 mph N/A   Clear
11:55 AM 96.1 °F 95.2 °F 57.6 °F 28% 30.08 in 10.0 mi SW 12.7 mph 19.6 mph N/A   Clear
12:15 PM 96.8 °F 95.8 °F 57.7 °F 27% 30.08 in 10.0 mi SSW 13.8 mph 18.4 mph N/A   Clear
12:35 PM 97.2 °F 96.4 °F 57.9 °F 27% 30.07 in 10.0 mi SW 9.2 mph 17.3 mph N/A   Clear
12:55 PM 98.1 °F 97.2 °F 58.1 °F 26% 30.07 in 10.0 mi SSW 11.5 mph 18.4 mph N/A   Clear
1:15 PM 99.0 °F 98.1 °F 57.9 °F 25% 30.06 in 10.0 mi SW 12.7 mph 19.6 mph N/A   Clear
1:35 PM 99.3 °F 98.6 °F 57.7 °F 25% 30.06 in 10.0 mi SSW 17.3 mph 23.0 mph N/A   Clear
1:55 PM 99.9 °F 99.0 °F 57.2 °F 24% 30.05 in 10.0 mi South 12.7 mph 19.6 mph N/A   Clear
2:15 PM 101.8 °F 100.8 °F 56.7 °F 22% 30.04 in 10.0 mi SW 11.5 mph 19.6 mph N/A   Clear
2:35 PM 101.1 °F 100.3 °F 56.5 °F 23% 30.03 in 10.0 mi SSW 12.7 mph 21.9 mph N/A   Clear
2:55 PM 101.3 °F 100.1 °F 55.8 °F 22% 30.03 in 10.0 mi South 13.8 mph 20.7 mph N/A   Clear
3:15 PM 102.7 °F 101.6 °F 56.1 °F 21% 30.02 in 10.0 mi SSW 18.4 mph 23.0 mph N/A   Clear
3:35 PM 102.6 °F 101.4 °F 55.6 °F 21% 30.02 in 10.0 mi South 10.4 mph 25.3 mph N/A   Clear
3:55 PM 101.5 °F 100.3 °F 55.9 °F 22% 30.01 in 10.0 mi SSW 16.1 mph 19.6 mph N/A   Clear
4:15 PM 102.2 °F 100.9 °F 55.6 °F 21% 30.00 in 10.0 mi South 15.0 mph 18.4 mph N/A   Clear
4:35 PM 102.7 °F 101.6 °F 55.8 °F 21% 29.99 in 10.0 mi SSW 17.3 mph - N/A   Clear
4:55 PM 102.6 °F 101.4 °F 55.6 °F 21% 29.99 in 10.0 mi SSW 15.0 mph 21.9 mph N/A   Clear
5:15 PM 102.4 °F 101.6 °F 56.3 °F 22% 29.98 in 10.0 mi SSW 11.5 mph 17.3 mph N/A   Clear
5:35 PM 102.4 °F 101.6 °F 56.7 °F 22% 29.98 in 10.0 mi SW 12.7 mph 16.1 mph N/A   Clear
5:55 PM 101.8 °F 101.4 °F 57.2 °F 23% 29.97 in 10.0 mi SSE 10.4 mph 19.6 mph N/A   Clear
6:15 PM 102.2 °F 101.4 °F 56.3 °F 22% 29.97 in 10.0 mi SSW 8.1 mph - N/A   Clear
6:35 PM 101.7 °F 101.1 °F 57.2 °F 23% 29.97 in 10.0 mi South 15.0 mph 20.7 mph N/A   Clear
6:55 PM 100.8 °F 99.8 °F 57.2 °F 23% 29.96 in 10.0 mi South 18.4 mph 21.9 mph N/A   Clear
7:15 PM 101.3 °F 100.6 °F 56.5 °F 23% 29.96 in 10.0 mi South 16.1 mph 23.0 mph N/A   Clear
7:35 PM 100.9 °F 100.0 °F 56.3 °F 23% 29.96 in 10.0 mi SSW 15.0 mph 20.7 mph N/A   Clear
7:55 PM 100.4 °F 99.3 °F 55.9 °F 23% 29.95 in 10.0 mi South 15.0 mph - N/A   Clear
8:15 PM 99.7 °F 98.3 °F 55.8 °F 23% 29.96 in 10.0 mi South 12.7 mph - N/A   Clear
8:35 PM 99.1 °F 97.5 °F 55.6 °F 23% 29.96 in 10.0 mi South 11.5 mph - N/A   Clear
8:55 PM 98.2 °F 96.7 °F 55.6 °F 24% 29.96 in 10.0 mi South 13.8 mph - N/A   Clear
9:15 PM 97.0 °F 95.3 °F 55.8 °F 25% 29.97 in 10.0 mi South 10.4 mph - N/A   Clear
9:35 PM 95.9 °F 94.2 °F 55.4 °F 26% 29.97 in 10.0 mi South 10.4 mph - N/A   Clear
9:55 PM 95.2 °F 93.3 °F 55.4 °F 26% 29.98 in 10.0 mi South 10.4 mph - N/A   Clear
10:15 PM 94.5 °F 92.6 °F 55.4 °F 27% 29.98 in 10.0 mi South 10.4 mph - N/A   Clear
10:35 PM 94.1 °F 92.2 °F 55.8 °F 27% 29.99 in 10.0 mi South 10.4 mph - N/A   Clear
10:55 PM 93.7 °F 92.0 °F 56.3 °F 28% 30.01 in 10.0 mi South 11.5 mph - N/A   Clear
11:15 PM 93.2 °F 91.6 °F 56.3 °F 29% 30.01 in 10.0 mi South 11.5 mph - N/A   Clear
11:35 PM 92.3 °F 90.7 °F 56.3 °F 30% 30.01 in 10.0 mi South 11.5 mph - N/A   Clear
11:55 PM 91.4 °F 89.6 °F 56.3 °F 30% 30.01 in 10.0 mi South 11.5 mph - N/A   Clear